This is the latest recevied weather packets stored in our database for station/object N4WFF. If no packets are shown the sender has not sent any weather packets the latest 1 day(s).
| Time | Temp. | Humidity | Pressure | Rain* | Wind** | Luminosity | Snow |
|---|---|---|---|---|---|---|---|
| 1778034356 | 21.11° C | 81% | 1014.6 hPa | 0 mm | 1.79 m/s, 202° | 0 W/m² | - |
| 1778034056 | 21.11° C | 81% | 1014.6 hPa | 0 mm | 1.34 m/s, 206° | 0 W/m² | - |
| 1778033755 | 21.11° C | 80% | 1014.4 hPa | 0 mm | 1.34 m/s, 192° | 0 W/m² | - |
| 1778033456 | 21.11° C | 80% | 1014.3 hPa | 0 mm | 0.89 m/s, 201° | 0 W/m² | - |
| 1778033155 | 21.11° C | 79% | 1014.3 hPa | 0 mm | 1.34 m/s, 205° | 0 W/m² | - |
| 1778032856 | 21.11° C | 79% | 1014.4 hPa | 0 mm | 1.79 m/s, 201° | 0 W/m² | - |
| 1778032556 | 21.11° C | 79% | 1014.5 hPa | 0 mm | 1.34 m/s, 194° | 0 W/m² | - |
| 1778032256 | 21.11° C | 79% | 1014.5 hPa | 0 mm | 0.89 m/s, 203° | 0 W/m² | - |
| 1778031956 | 21.11° C | 78% | 1014.6 hPa | 0 mm | 0.89 m/s, 206° | 0 W/m² | - |
| 1778031655 | 21.67° C | 78% | 1014.7 hPa | 0 mm | 0.89 m/s, 210° | 0 W/m² | - |
| 1778031355 | 21.67° C | 77% | 1014.6 hPa | 0 mm | 1.34 m/s, 206° | 0 W/m² | - |
| 1778031055 | 21.67° C | 77% | 1014.6 hPa | 0 mm | 1.79 m/s, 202° | 0 W/m² | - |
| 1778030755 | 21.67° C | 76% | 1014.6 hPa | 0 mm | 1.34 m/s, 207° | 0 W/m² | - |
| 1778030455 | 22.22° C | 76% | 1014.4 hPa | 0 mm | 1.34 m/s, 200° | 0 W/m² | - |
| 1778030156 | 22.22° C | 75% | 1014.4 hPa | 0 mm | 1.34 m/s, 198° | 0 W/m² | - |
| 1778029856 | 22.22° C | 74% | 1014.5 hPa | 0 mm | 1.34 m/s, 222° | 0 W/m² | - |
| 1778029557 | 22.22° C | 73% | 1014.4 hPa | 0 mm | 2.24 m/s, 199° | 0 W/m² | - |
| 1778029255 | 22.78° C | 73% | 1014.4 hPa | 0 mm | 1.79 m/s, 210° | 0 W/m² | - |
| 1778028955 | 22.78° C | 73% | 1014.4 hPa | 0 mm | 1.34 m/s, 211° | 0 W/m² | - |
| 1778028656 | 22.78° C | 72% | 1014.3 hPa | 0 mm | 1.34 m/s, 203° | 0 W/m² | - |
| 1778028355 | 22.78° C | 72% | 1014.2 hPa | 0 mm | 1.79 m/s, 208° | 0 W/m² | - |
| 1778028055 | 22.78° C | 72% | 1014 hPa | 0 mm | 0.89 m/s, 210° | 0 W/m² | - |
| 1778027756 | 23.33° C | 71% | 1013.9 hPa | 0 mm | 2.24 m/s, 199° | 1 W/m² | - |
| 1778027455 | 23.33° C | 71% | 1013.8 hPa | 0 mm | 2.24 m/s, 208° | 2 W/m² | - |
| 1778027155 | 23.33° C | 70% | 1013.9 hPa | 0 mm | 1.79 m/s, 188° | 4 W/m² | - |
* Rain latest hour (hover to see other rain measurements)
** Current wind speed in m/s (hover to see current wind gust speed)